Погода в Тавое

Мьянма     14°01′00″N   98°12′30″E
темп.,
°C
ветер,
м/с
пор.,
м/с
влажн.,
%
обл.,
%
осадки,
мм/ч
давл.,
гПа
погр.,
м
28 июля, ср
ср2800:30+25зюз4993100 20.9 1007272
03:30+24зюз2795100 8.4 1006225
06:30+25з1595100 14.3 1007181
09:30+27зюз4684100 5.9 1008781
12:30+28зюз4682100 9.9 1007976
15:30+27зюз4684100 4.8 1005891
18:30+25зюз3691100 10.6 1006155
21:30+25зюз2490100 3.9 100877
29 июля, чт
чт2900:30+25зюз3791100 5.7 1007209
03:30+25з3993100 2.7 1005279
06:30+25з3791100 8.3 1007275
09:30+28з357897 1.2 1008817
12:30+28з3579100 2.3 1007684
15:30+26з1289100 2.0 1006109
18:30+25ююз1190100 3.7 100711
21:30+24юз2392100 1.8 100955
30 июля, пт
пт3000:30+24юз2392100 4.0 100880
03:30+24зюз1495100 3.8 1007121
06:30+24юз0194100 8.3 100816
09:30+27з2385100 4.2 1010512
12:30+28юз4575100 6.1 10081085
15:30+27юз3581100 2.3 1007717
18:30+25ююз2487100 4.5 100886
21:30+25зюз4888100 2.0 1010230
31 июля, сб
сб3100:30+24зюз3792100 5.6 1009218
03:30+24юз2495100 5.3 1007101
06:30+24ююз119698 9.7 100842
09:30+27зюз3584100 5.2 1009727
12:30+27з4685100 10.4 1008993
15:30+27з4788100 4.4 1006744
18:30+25зюз3792100 10.1 1007257
21:30+25зюз4889100 5.9 1009191
1 августа, вс
вс100:30+24зюз3894100 11.2 1008283
03:30+24зюз3994100 5.4 1006354
06:30+25з4991100 9.7 1007381
09:30+27з578785 6.4 1008766
12:30+27з5883100 12.3 1006840
15:30+27з4784100 5.1 1005785
18:30+25зюз4891100 13.3 1006259
21:30+25зюз4891100 7.1 1008236